Home   Weather   Raleigh   Past weeks

Flag for USA Past Weather in Raleigh, North Carolina, USA — Yesterday and Last 2 Weeks

Now
45 °F

Drizzle. Mostly cloudy.


Feels Like: 42 °F
Forecast: 44 / 61 °F
Wind: 6 mph from North

Location: Raleigh-Durham International Airport

Current Time: Jan 23, 2017 at 10:28:02 pm

Latest Report: Jan 23, 2017 at 9:51 pm


Visibility: 7 mi

Pressure: 29.45 "Hg

Humidity: 86%

Dew Point: 41 °F

Location of RaleighLocation

Past Weather in Raleigh — Graph

°F

Raleigh Temperature Yesterday

Maximum temperature yesterday: 55 °F (at 12:28 pm)
Minimum temperature yesterday: 53 °F (at 2:51 am)
Average temperature yesterday: 54 °F

High & Low Weather Summary for the Past Weeks

 TemperatureHumidityPressure
High75 °F (Jan 13, 1:51 pm)100% (Jan 11, 6:51 am)30.83 "Hg (Jan 11, 6:51 am)
Low9 °F (Jan 9, 7:51 am)31% (Jan 18, 1:51 pm)29.20 "Hg (Jan 23, 4:51 am)
Average50 °F76%30.14 "Hg
* Reported Jan 8 8:51 pm — Jan 23 8:51 pm, Raleigh, Weather by CustomWeather, © 2017

Note: Actual official high and low records may vary slightly from our data, if they occured in-between our weather recording intervals... More about our weather records

Advertising

Raleigh Weather History for the Previous 24 Hours

Scroll right to see more
 ConditionsComfort  
Time TempWeatherWind HumidityBarometerVisibility
8:51 pm
Mon, Jan 23
47 °FMostly cloudy.9 mph83%29.41 "Hg10 mi
7:51 pm48 °FMostly cloudy.9 mph83%29.38 "Hg10 mi
6:51 pm50 °FMostly cloudy.12 mph83%29.35 "Hg10 mi
5:51 pm52 °FPassing clouds.10 mph86%29.32 "Hg10 mi
5:12 pm56 °FPartly sunny.8 mph75%29.30 "Hg10 mi
4:52 pm58 °FBroken clouds.5 mph62%29.28 "Hg10 mi
3:51 pm59 °FPartly sunny.No wind62%29.26 "Hg10 mi
2:51 pm59 °FPartly sunny.8 mph62%29.25 "Hg10 mi
1:51 pm59 °FPartly sunny.5 mph62%29.23 "Hg10 mi
12:51 pm59 °FBroken clouds.9 mph62%29.26 "Hg10 mi
11:51 am58 °FBroken clouds.8 mph72%29.28 "Hg10 mi
11:08 am56 °FBroken clouds.15 mph77%29.30 "Hg10 mi
10:51 am56 °FPartly sunny.15 mph77%29.29 "Hg10 mi
9:51 am53 °FPartly sunny.14 mph86%29.28 "Hg10 mi
9:39 am53 °FPartly sunny.8 mph86%29.28 "Hg10 mi
8:51 am53 °FPartly sunny.16 mph89%29.24 "Hg10 mi
8:05 am55 °FMostly cloudy.15 mph93%29.23 "Hg10 mi
7:51 am55 °FMostly cloudy.7 mph96%29.23 "Hg2 mi
6:51 am54 °FMostly cloudy.7 mph97%29.21 "Hg2 mi
6:28 am54 °FMostly cloudy.9 mph93%29.22 "Hg10 mi
6:08 am54 °FMostly cloudy.6 mph93%29.21 "Hg10 mi
5:51 am53 °FHeavy rain. Fog.12 mph96%29.20 "Hg2 mi
5:21 am53 °FLow clouds.16 mph96%29.21 "Hg2 mi
4:51 am52 °FLow clouds.15 mph97%29.20 "Hg10 mi
3:51 am52 °FLight rain. Low clouds.17 mph97%29.21 "Hg10 mi
2:51 am52 °FFog.14 mph97%29.28 "Hg1 mi
1:51 am52 °FFog.13 mph97%29.31 "Hg1 mi
12:51 am52 °FLight rain. Low clouds.12 mph97%29.36 "Hg1 mi
11:51 pm
Sun, Jan 22
53 °FLight rain. Low clouds.22 mph93%29.39 "Hg1 mi
10:51 pm53 °FLight rain. Low clouds.10 mph96%29.45 "Hg1 mi
10:22 pm54 °FRain. Fog.9 mph93%29.50 "Hg1 mi
Weather by CustomWeather, © 2017

See weather overviewHow to use our weather pages